Pagina principale
METAR-TAF:

METAR-TAF

Aeroporti :

Meiringen, Svizzera

latitudine: 46-44-25N, longitudine: 8-06-36E, altezza: 577 m

Osservazione

Il bollettino è stato emesso 29 minuti fa, alle 14:20 UTC
Vento 3 kt da direzioni variabili
Temperature 18°C
Umidità 59%
Pressione 1010 hPa
Visibilità 10 km o più
Poco nuvoloso ad un'altezza di 6000 ft
Nuvoloso ad un'altezza di 9000 ft

METAR: LSMM 151420Z VRB03KT 9999 FEW060 BKN090 18/10 Q1010 RMK BLU

Ora: 16:49 (14:49 UTC)


TAF: mancante

Osservazioni e previsioni meteorologiche di più di 4000 aeroporti (messaggi METAR e TAF).

Le stazioni disponibili sono rappresentate dai dischi gialli e rossi sulla carta.

Puntare il mouse per vedere il nome della stazione.

Clicca sopra per visualizzare le osservazioni e previsioni meteorologiche.

Per cambiare la mappa : fare clic sui pulsanti verdi con una croce nera per ingrandire, il pulsante verde con un trattino per diminuire, o sulla freccia verde per le mappe adiacenti.


METAR-TAF: